Regional Weather Roundup
Issued by NWS Little Rock, AR

Home | Current Version | Previous Version | Graphics & Text | Print | Product List | Glossary On
Versions: 1 2 3 4 5 6 7 8 9 10 11 12 13 14 15 16 17 18 19 20 21 22 23 24 25 26 27 28 29 30 31
000
ASUS44 KLZK 190805
RWRLZK

WEATHER ROUNDUP FOR ARKANSAS
NATIONAL WEATHER SERVICE LITTLE ROCK AR
200 AM CST MON FEB 19 2018

NOTE: "FAIR" INDICATES FEW OR NO CLOUDS BELOW 12,000 FEET WITH NO
SIGNIFICANT WEATHER AND/OR OBSTRUCTIONS TO VISIBILITY.

ARZ001-003-010-029-190900-
NORTHWEST ARKANSAS

CITY           SKY/WX    TMP DP  RH WIND       PRES   REMARKS
FAYETTEVILLE   CLOUDY    57  57 100 S21G26    29.84F
FORT SMITH     CLOUDY    53  51  93 E7        29.88F
HARRISON       CLOUDY    55  54  96 S12       29.90S
BENTONVILLE    CLOUDY    59  56  89 S16G26    29.85F
ROGERS         CLOUDY    59  56  89 S18G25    29.84F
SILOAM SPGS    CLOUDY    58  56  93 S17G24    29.84S
HIGHFILL       CLOUDY    59  57  93 S21G29    29.84S
$$

ARZ004-005-016-190900-
NORTH CENTRAL ARKANSAS

CITY           SKY/WX    TMP DP  RH WIND       PRES   REMARKS
BATESVILLE     LGT RAIN  51  51 100 E5        30.01S FOG
FLIPPIN        CLOUDY    52  50  93 SE6       29.94F
MTN HOME       CLOUDY    52  52 100 S9        29.93F
$$

ARZ040-041-190900-
WEST CENTRAL ARKANSAS

CITY           SKY/WX    TMP DP  RH WIND       PRES   REMARKS
MENA           CLOUDY    64  63  94 S10G25    29.94R
MOUNT IDA      CLOUDY    61  60  97 VRB6      29.93F
$$

ARZ009-017-025-026-028-190900-
NORTHEAST ARKANSAS

CITY           SKY/WX    TMP DP  RH WIND       PRES   REMARKS
JONESBORO      FOG       54  54 100 S12       30.03R VSB 3/4
NEWPORT        FOG       52  52 100 SE6       30.02S VSB 1/2
WALNUT RIDGE   LGT RAIN  52  52 100 S8        30.01F FOG
BLYTHEVILLE    CLOUDY    56  56 100 S10       30.04F
$$

ARZ022-023-033-042-044-190900-
CENTRAL ARKANSAS

CITY           SKY/WX    TMP DP  RH WIND       PRES   REMARKS
LITTLE ROCK    CLOUDY    52  52 100 CALM      30.00R
N LITTLE ROCK    N/A     52  52 100 S3        29.98S
JACKSONVILLE   FOG       54  54 100 SE3       29.99S VSB 1/2
SEARCY         FOG       52  32  46 CALM      30.01  VSB 1/2
HOT SPRINGS    CLOUDY    56  56 100 W3        29.99S FOG
RUSSELLVILLE   CLOUDY    50  50 100 E9        29.94F
CLINTON        FOG       46  46 100 CALM      30.00S VSB 1
$$

ARZ036-190900-
EAST ARKANSAS

CITY           SKY/WX    TMP DP  RH WIND       PRES   REMARKS
WEST MEMPHIS   FAIR      56  56 100 S13       30.03F
$$

ARZ050-053-066-070-073-190900-
SOUTHWEST ARKANSAS

CITY           SKY/WX    TMP DP  RH WIND       PRES   REMARKS
ARKADELPHIA    FOG       52  52 100 CALM      29.99F VSB 1
CAMDEN         FOG       57  55  94 S6        30.00S VSB 1/2
TEXARKANA      CLOUDY    64  62  93 S12G22    29.97R
EL DORADO      CLOUDY    64  64 100 S9        30.02S
DE QUEEN       CLOUDY    54  54 100 NE5       29.93F FOG
$$

ARZ056-057-069-190900-
SOUTHEAST ARKANSAS

CITY           SKY/WX    TMP DP  RH WIND       PRES   REMARKS
PINE BLUFF     MOCLDY    57  57 100 S10       30.01S
STUTTGART      MOCLDY    56  55  97 SE12      30.01F
MONTICELLO     FAIR      59  58  96 S5        30.04R

$$






USA.gov is the U.S. government's official web portal to all federal, state and local government web resources and services.